DW8425 Weather Reports


Display with metric or nautical units.
time (UTC)temp
F
wind
direction
speed
MPH
gust
MPH
rain 1hr
in
rain 24hr
in
rain mn
in
humidity
%
barometer
mb
20260831053057 44 360 0.0 3.0 0.00 0.00 0.00 44 1013.1
20260831051556 44 155 0.0 4.0 0.00 0.00 0.00 42 1013.0
20260831050131 46 46 0.0 0.0 0.00 0.00 0.00 41 1012.9
20260831044554 48 10 0.0 0.0 0.00 0.00 0.00 38 1012.7
20260831043052 48 12 0.0 1.0 0.00 0.00 0.00 37 1012.5
20260831041551 48 46 0.0 1.0 0.00 0.00 0.00 36 1012.4
20260831040052 48 31 0.0 2.0 0.00 0.00 0.00 38 1012.0
20260831034549 49 26 0.0 1.0 0.00 0.00 0.00 35 1012.0
20260831033047 51 33 0.0 2.0 0.00 0.00 0.00 34 1011.7
20260831031547 52 355 0.0 3.0 0.00 0.00 0.00 34 1011.4
20260831030051 53 44 0.0 2.0 0.00 0.00 0.00 33 1011.1
20260831024543 55 312 0.0 1.0 0.00 0.00 0.00 31 1010.8
20260831023042 58 360 1.0 4.0 0.00 0.00 0.00 28 1010.5
20260831021543 59 360 1.0 3.0 0.00 0.00 0.00 26 1010.4
20260831020041 61 360 0.0 4.0 0.00 0.00 0.00 25 1010.1
20260831014548 62 317 0.0 5.0 0.00 0.00 0.00 23 1010.1
20260831013041 63 341 1.0 5.0 0.00 0.00 0.00 23 1010.1
20260831011541 64 311 1.0 5.0 0.00 0.00 0.00 22 1010.1
20260831010039 64 20 2.0 6.0 0.00 0.00 0.00 22 1010.1
20260831004544 65 341 0.0 4.0 0.00 0.00 0.00 22 1010.2
20260831003039 65 234 1.0 6.0 0.00 0.00 0.00 22 1010.2
20260831001539 66 310 1.0 6.0 0.00 0.00 0.00 21 1010.2
20260831000051 66 311 0.0 4.0 0.00 0.00 0.00 21 1010.3
20260830234545 67 299 1.0 3.0 0.00 0.00 0.00 21 1010.2
20260830233053 66 324 2.0 5.0 0.00 0.00 0.00 21 1010.2
20260830231536 67 267 2.0 7.0 0.00 0.00 0.00 19 1010.3
20260830230034 67 333 2.0 9.0 0.00 0.00 0.00 19 1010.4
20260830224534 66 313 2.0 6.0 0.00 0.00 0.00 18 1010.4
20260830223034 67 191 2.0 4.0 0.00 0.00 0.00 16 1010.7
20260830221533 67 340 3.0 9.0 0.00 0.00 0.00 16 1010.6
20260830220053 68 263 1.0 9.0 0.00 0.00 0.00 17 1010.7
20260830214532 67 311 2.0 7.0 0.00 0.00 0.00 15 1010.7
20260830213032 68 314 2.0 5.0 0.00 0.00 0.00 15 1011.0
20260830211530 67 335 2.0 7.0 0.00 0.00 0.00 14 1011.1
20260830210026 66 162 4.0 7.0 0.00 0.00 0.00 17 1011.1
20260830204523 64 329 1.0 8.0 0.00 0.00 0.00 19 1011.1
20260830203023 64 211 1.0 6.0 0.00 0.00 0.00 18 1011.1
20260830201521 65 136 4.0 10.0 0.00 0.00 0.00 17 1011.2
20260830200032 64 11 2.0 6.0 0.00 0.00 0.00 18 1011.1
20260830194519 64 310 1.0 11.0 0.00 0.00 0.00 18 1011.2
20260830193020 64 327 2.0 11.0 0.00 0.00 0.00 19 1011.2
20260830191604 64 194 3.0 11.0 0.00 0.00 0.00 17 1011.2
20260830190018 63 293 1.0 7.0 0.00 0.00 0.00 21 1011.2
20260830184514 62 334 1.0 5.0 0.00 0.00 0.00 18 1011.2
20260830183011 61 315 1.0 7.0 0.00 0.00 0.00 17 1011.3
20260830181510 61 190 0.0 6.0 0.00 0.00 0.00 19 1011.3
20260830180007 60 282 0.0 3.0 0.00 0.00 0.00 21 1011.3
20260830174504 60 311 1.0 7.0 0.00 0.00 0.00 21 1011.3
20260830173005 59 241 0.0 4.0 0.00 0.00 0.00 23 1011.1
20260830171603 58 258 0.0 5.0 0.00 0.00 0.00 24 1011.0
20260830170057 58 304 0.0 3.0 0.00 0.00 0.00 26 1010.8
20260830164553 56 350 0.0 4.0 0.00 0.00 0.00 28 1010.8
20260830163050 54 198 0.0 1.0 0.00 0.00 0.00 29 1010.7
20260830161556 52 165 0.0 2.0 0.00 0.00 0.00 37 1010.7
20260830160044 50 171 0.0 3.0 0.00 0.00 0.00 39 1010.7
20260830154543 47 161 1.0 4.0 0.00 0.00 0.00 47 1010.7
20260830153043 44 260 0.0 0.0 0.00 0.00 0.00 51 1010.9
20260830151542 41 260 0.0 0.0 0.00 0.00 0.00 54 1011.0
20260830150043 38 260 0.0 2.0 0.00 0.00 0.00 60 1010.6
20260830144544 36 260 0.0 1.0 0.00 0.00 0.00 61 1010.5
20260830143040 34 260 0.0 3.0 0.00 0.00 0.00 64 1010.5
20260830141540 33 194 0.0 3.0 0.00 0.00 0.00 63 1010.4
20260830140035 33 103 0.0 2.0 0.00 0.00 0.00 60 1010.2
20260830134537 34 111 1.0 3.0 0.00 0.00 0.00 60 1009.8
20260830133030 34 313 1.0 5.0 0.00 0.00 0.00 60 1009.6
20260830131544 34 313 0.0 3.0 0.00 0.00 0.00 60 1009.2
20260830130024 38 69 0.0 2.0 0.00 0.00 0.00 49 1008.9
20260830124522 37 134 0.0 1.0 0.00 0.00 0.00 52 1009.0
20260830123019 38 134 0.0 2.0 0.00 0.00 0.00 57 1008.7
20260830121519 38 134 0.0 4.0 0.00 0.00 0.00 51 1008.5
20260830120015 39 355 0.0 1.0 0.00 0.00 0.00 50 1008.2
20260830114517 39 355 0.0 3.0 0.00 0.00 0.00 51 1008.1
20260830113017 39 122 0.0 2.0 0.00 0.00 0.00 52 1007.9
20260830111510 40 128 1.0 4.0 0.00 0.00 0.00 55 1007.9
20260830110012 40 271 0.0 1.0 0.00 0.00 0.00 53 1007.7
20260830104505 40 265 0.0 2.0 0.00 0.00 0.00 56 1007.6
20260830103003 41 265 0.0 2.0 0.00 0.00 0.00 54 1007.4
20260830101615 42 5 0.0 1.0 0.00 0.00 0.00 46 1007.1
20260830100056 43 44 1.0 2.0 0.00 0.00 0.00 47 1006.9
20260830094553 45 42 0.0 2.0 0.00 0.00 0.00 48 1006.6
20260830093049 46 51 1.0 2.0 0.00 0.00 0.00 48 1006.3
20260830091549 46 67 1.0 2.0 0.00 0.00 0.00 48 1006.2
20260830090046 47 59 0.0 2.0 0.00 0.00 0.00 48 1006.0
20260830084545 48 5 0.0 2.0 0.00 0.00 0.00 51 1005.9
20260830083049 48 59 0.0 2.0 0.00 0.00 0.00 49 1006.0
20260830081540 49 328 0.0 4.0 0.00 0.00 0.00 52 1006.1
20260830080040 50 54 0.0 2.0 0.00 0.00 0.00 51 1005.8
20260830074539 50 47 0.0 2.0 0.00 0.00 0.00 53 1005.8
20260830073030 51 42 0.0 1.0 0.00 0.00 0.00 54 1005.8
20260830071528 51 26 0.0 1.0 0.00 0.00 0.00 53 1005.5
20260830070035 51 355 0.0 1.0 0.00 0.00 0.00 56 1005.4
20260830064525 51 355 0.0 2.0 0.00 0.00 0.00 58 1005.2
20260830063024 52 5 0.0 1.0 0.00 0.00 0.00 59 1005.3
20260830061521 51 5 0.0 3.0 0.00 0.00 0.00 62 1005.2
20260830060038 52 144 0.0 1.0 0.00 0.00 0.00 63 1005.1
20260830054517 52 144 0.0 2.0 0.00 0.00 0.00 60 1005.3